Station 46075 (LLNR 1197) - SHUMAGIN ISLANDS - 85NM South of Sand Point, AK Image indicating link to RSS feed of recent meteorological observations for station 46075


Conditions at 46075 as of
(5:00 am AKDT)
1300 GMT on 06/21/2024:
     

Click on the graph icon in the table below to see a time series plot of the last five days of that observation.

5-day plot - Wind Speed Wind Speed (WSPD): 13.6 kts
5-day plot - Wind Gust Wind Gust (GST): 17.5 kts
5-day plot - Atmospheric Pressure Atmospheric Pressure (PRES):30.00 in
5-day plot - Pressure Tendency Pressure Tendency (PTDY):+0.02 in ( Rising )
5-day plot - Water Temperature Water Temperature (WTMP): 48.7 °F
5-day plot - Wind Speed at 10 Meters Wind Speed at 10 meters (WSPD10M): 15.5 kts
5-day plot - Wind Speed at 20 Meters Wind Speed at 20 meters (WSPD20M): 15.5 kts
5-day plot -  Wind Speed, Wind Gust and Atmospheric Pressure Combined plot of Wind Speed, Gust, and Air Pressure
Supplemental Measurements
Highest 1-minute Wind Speed
Time (AKDT)5-day plot - 1-Minute Wind Speed WSPD 5-day plot - 1-Minute Wind Direction WDIR
4:52 am 15.5 kts-
Previous observations
TIME
(AKDT)
5-day plot - Wind Direction
WDIR
 
5-day plot - Wind Speed
WSPD
kts
5-day plot - Wind Gust
GST
kts
5-day plot - Wave Height
WVHT
ft
5-day plot - Dominant Wave Period
DPD
sec
5-day plot - Average Wave Period
APD
sec
5-day plot - Mean Wave Direction
MWD
 
5-day plot - Atmospheric Pressure
PRES
in
5-day plot - Pressure Tendency
PTDY
in
5-day plot - Air Temperature
ATMP
°F
5-day plot - Water Temperature
WTMP
°F
5-day plot - Dew Point
DEWP
°F
5-day plot - Salinity
SAL
psu
5-day plot - Visibility
VIS
nmi
5-day plot - Tide (above MLLW)
TIDE
ft
2024-06-21 04:50 am- 13.6 19.4 5.2 85.7ESE30.00-- 48.7----
2024-06-21 04:40 am- 15.5 19.4----30.00-- 48.7----
2024-06-21 04:30 am- 13.6 19.4----30.00-- 48.6----
2024-06-21 04:20 am- 13.6 19.4 4.6 85.7ESE30.00-------
2024-06-21 04:10 am- 15.5 19.4 4.6-5.7ESE30.00-- 48.6----
2024-06-21 04:00 am- 15.5 19.4----30.00+0.02- 48.6----
2024-06-21 03:50 am- 13.6 17.5 5.2 85.8 E30.00-- 48.6----
2024-06-21 03:40 am- 15.5 19.4----29.99-- 48.6----
2024-06-21 03:30 am- 15.5 19.4----30.00-- 48.6----
2024-06-21 03:20 am- 15.5 19.4 5.2 86.2 E29.99-- 48.6----
2024-06-21 03:10 am- 13.6 19.4 5.2-6.2 E29.99-- 48.6----
2024-06-21 03:00 am- 13.6 19.4----29.99+0.03- 48.6----
2024-06-21 02:50 am- 13.6 17.5 4.9 86.0 E29.98-- 48.6----
2024-06-21 02:40 am- 11.7 15.5----29.98-- 48.6----
2024-06-21 02:30 am- 11.7 13.6----29.98-- 48.6----
2024-06-21 02:20 am- 9.7 13.6 4.9 86.2 E29.98-- 48.6----
2024-06-21 02:10 am- 9.7 13.6 4.9-6.2 E29.98-- 48.6----
2024-06-21 02:00 am- 9.7 11.7----29.98+0.04- 48.6----
2024-06-21 01:50 am- 7.8 13.6 5.2 86.1 E29.98-- 48.6----
2024-06-21 01:40 am- 7.8 11.7 5.2-6.1 E29.98-- 48.6----
2024-06-21 01:30 am- 7.8 11.7----29.98-- 48.6----
2024-06-21 01:20 am- 7.8 11.7 5.9-6.2ESE29.98-------
2024-06-21 01:10 am--- 5.9 8----- 48.6----
2024-06-21 01:00 am- 7.8 9.7----29.97+0.04- 48.6----
2024-06-21 12:50 am- 7.8 9.7 5.2 85.9 E29.97-- 48.6----
2024-06-21 12:40 am- 7.8 9.7----29.97-- 48.6----
2024-06-21 12:30 am- 9.7 11.7----29.97-- 48.6----
2024-06-21 12:20 am- 9.7 13.6 5.6 85.9 E29.97-- 48.6----
2024-06-21 12:10 am- 9.7 13.6 5.6-5.9 E29.96-- 48.6----
2024-06-21 12:00 am- 9.7 13.6----29.96+0.05- 48.6----
2024-06-20 11:50 pm- 9.7 13.6 5.6 76.0 E29.96-- 48.6----
2024-06-20 11:40 pm- 11.7 13.6 5.6-6.0 E29.95-- 48.6----
2024-06-20 11:30 pm- 11.7 13.6----29.95-- 48.6----
2024-06-20 11:20 pm- 11.7 15.5 4.9 75.7 E29.95-- 48.6----
2024-06-20 11:10 pm- 11.7 13.6 4.9-5.7 E29.95-- 48.6----
2024-06-20 11:00 pm- 11.7 13.6----29.94+0.04- 48.6----
2024-06-20 10:50 pm- 11.7 15.5 5.2 85.8 E29.94-- 48.6----
2024-06-20 10:40 pm- 9.7 11.7----29.94-- 48.7----
2024-06-20 10:30 pm- 9.7 13.6----29.94-- 48.7----
2024-06-20 10:20 pm- 9.7 13.6 5.2 85.7ESE29.93-- 48.7----
2024-06-20 10:10 pm- 7.8 11.7 5.2-5.7ESE29.93-- 48.7----
2024-06-20 10:00 pm- 7.8 9.7----29.93+0.05- 48.7----
2024-06-20 09:50 pm- 7.8 11.7 4.9 85.6 E29.93-- 48.7----
2024-06-20 09:40 pm- 9.7 11.7----29.93-- 48.7----
2024-06-20 09:30 pm- 9.7 11.7----29.93-- 48.7----
2024-06-20 09:20 pm- 9.7 11.7 5.2 85.6 E29.92-- 48.7----
2024-06-20 09:10 pm- 9.7 11.7 5.2-5.6 E29.92-- 48.7----
2024-06-20 09:00 pm- 9.7 11.7----29.91+0.05- 48.7----
2024-06-20 08:50 pm- 9.7 11.7 4.9 85.5 E29.91-- 48.9----
2024-06-20 08:40 pm- 11.7 13.6 4.9-5.5 E29.91-- 48.7----
2024-06-20 08:30 pm- 11.7 13.6----29.91-- 48.9----
2024-06-20 08:20 pm- 11.7 13.6 5.6 85.6 E29.91-- 48.9----
2024-06-20 08:10 pm- 11.7 13.6 5.6-5.6 E29.91-- 48.9----
2024-06-20 08:00 pm- 9.7 11.7----29.90+0.05- 48.7----
2024-06-20 07:50 pm- 9.7 11.7 5.2 85.5ESE29.90-- 48.7----
2024-06-20 07:40 pm- 11.7 13.6 5.2-5.5ESE29.90-- 48.7----
2024-06-20 07:30 pm- 11.7 15.5----29.89-- 48.7----
2024-06-20 07:20 pm- 11.7 13.6 5.6 75.4 E29.89-- 48.7----
2024-06-20 07:10 pm- 11.7 15.5 5.6-5.4 E29.89-- 48.7----
2024-06-20 07:00 pm- 11.7 15.5----29.88+0.05- 48.7----
2024-06-20 06:50 pm- 13.6 15.5 5.6 65.3 E29.88-- 48.7----
2024-06-20 06:40 pm- 11.7 15.5 5.6-5.3 E29.88-- 48.7----
2024-06-20 06:30 pm- 13.6 15.5----29.87-- 48.7----
2024-06-20 06:20 pm- 13.6 17.5 5.6 75.0ESE29.87-- 48.6----
2024-06-20 06:10 pm- 13.6 17.5 5.6-5.0ESE29.87-- 48.6----
2024-06-20 06:00 pm- 13.6 17.5----29.86+0.04- 48.6----
2024-06-20 05:50 pm- 13.6 17.5 5.6 85.3ESE29.86-- 48.6----
2024-06-20 05:40 pm- 15.5 17.5----29.86-- 48.6----
2024-06-20 05:30 pm- 15.5 19.4----29.85-- 48.6----
2024-06-20 05:20 pm- 15.5 19.4 5.6 75.0 E29.85-- 48.6----
2024-06-20 05:10 pm- 15.5 19.4 5.6-5.0 E29.85-- 48.6----
2024-06-20 05:00 pm- 15.5 19.4----29.85+0.04- 48.6----
2024-06-20 04:50 pm- 17.5 21.4 5.6 65.1 E29.85-- 48.6----
2024-06-20 04:40 pm- 17.5 21.4----29.84-- 48.6----
2024-06-20 04:30 pm- 15.5 19.4----29.84-- 48.6----
2024-06-20 04:20 pm- 17.5 21.4 5.6 65.0 E29.84-- 48.6----
2024-06-20 04:10 pm- 15.5 19.4 5.6-5.0 E29.84-- 48.6----
2024-06-20 04:00 pm- 15.5 19.4----29.83+0.04- 48.6----
2024-06-20 03:50 pm- 17.5 19.4 5.9 55.1ENE29.83-- 48.4----
2024-06-20 03:40 pm- 15.5 23.3----29.83-- 48.4----
2024-06-20 03:20 pm- 17.5 21.4 5.6-4.9ENE29.83-------
2024-06-20 03:10 pm--- 5.6 6----- 48.4----
2024-06-20 03:00 pm- 17.5 21.4----29.82+0.03- 48.4----
2024-06-20 02:50 pm- 17.5 23.3 5.6 64.8 E29.81-- 48.4----
2024-06-20 02:40 pm- 17.5 23.3----29.81-- 48.4----
2024-06-20 02:30 pm- 17.5 21.4----29.81-- 48.6----
2024-06-20 02:20 pm- 17.5 23.3 5.6 84.9 E29.81-- 48.6----
2024-06-20 02:10 pm- 17.5 21.4 5.6-4.9 E29.81-- 48.6----
2024-06-20 02:00 pm- 19.4 21.4----29.81+0.01- 48.4----
2024-06-20 01:50 pm- 17.5 21.4 5.6 64.9 E29.81-- 48.4----
2024-06-20 01:40 pm- 19.4 23.3 5.6-4.9 E29.80-- 48.4----
2024-06-20 01:30 pm- 17.5 23.3----29.80-- 48.4----
2024-06-20 01:20 pm- 19.4 23.3 5.6 54.9ENE29.80-- 48.4----
2024-06-20 01:10 pm- 19.4 23.3 5.6-4.9ENE29.80-- 48.4----
2024-06-20 01:00 pm- 17.5 21.4----29.80+0.00- 48.4----
2024-06-20 12:50 pm- 19.4 25.3 5.6 55.0 E29.79-- 48.4----
2024-06-20 12:40 pm- 17.5 21.4----29.79-- 48.2----
2024-06-20 12:30 pm- 17.5 21.4----29.79-- 48.2----
2024-06-20 12:20 pm- 17.5 21.4 5.6 54.9 E29.79-- 48.2----
2024-06-20 12:10 pm- 17.5 21.4 5.6-4.9 E29.80-- 48.2----
2024-06-20 12:00 pm- 19.4 23.3----29.79+0.00- 48.2----
2024-06-20 11:50 am- 19.4 23.3 5.2 54.9ENE29.79-- 48.2----
2024-06-20 11:40 am- 17.5 23.3 5.2-4.9ENE29.79-- 48.2----
2024-06-20 11:30 am- 17.5 23.3----29.79-- 48.2----
2024-06-20 11:20 am- 17.5 21.4 5.6 55.0ENE29.80-- 48.2----
2024-06-20 11:10 am- 17.5 21.4 5.6-5.0ENE29.80-- 48.2----
2024-06-20 11:00 am- 17.5 21.4----29.80+0.01- 48.0----
2024-06-20 10:50 am- 17.5 21.4 5.6 55.0ENE29.79-- 48.0----
2024-06-20 10:40 am- 17.5 21.4----29.79-- 48.0----
2024-06-20 10:30 am- 17.5 21.4----29.79-- 48.0----
2024-06-20 10:20 am- 17.5 21.4 5.2 85.0ESE29.79-- 48.0----
2024-06-20 10:10 am- 17.5 21.4 5.2-5.0ESE29.80-- 48.0----
2024-06-20 10:00 am- 17.5 21.4----29.79+0.01- 48.0----
2024-06-20 09:50 am- 17.5 21.4 5.2 85.0 E29.79-- 48.0----
2024-06-20 09:40 am- 19.4 23.3----29.79-- 48.0----
2024-06-20 09:30 am- 19.4 23.3----29.79-- 48.0----
2024-06-20 09:20 am- 17.5 21.4 5.2 85.2ESE29.79-- 48.0----
2024-06-20 09:10 am- 17.5 21.4----29.79-- 48.0----
2024-06-20 09:00 am- 17.5 21.4 5.2-5.2ESE29.79+0.00- 48.0----
2024-06-20 08:50 am- 19.4 23.3 5.2 85.1 E29.79-- 48.0----
2024-06-20 08:40 am- 17.5 23.3----29.78-- 48.0----
2024-06-20 08:30 am- 17.5 21.4----29.79-- 48.0----
2024-06-20 08:20 am- 17.5 21.4 4.9 85.2 E29.79-- 48.0----
2024-06-20 08:10 am- 17.5 21.4 4.9-5.2 E29.79-- 48.0----
2024-06-20 08:00 am- 17.5 21.4----29.79-0.01- 48.0----
2024-06-20 07:50 am- 17.5 21.4 4.9 85.2 E29.78-- 48.0----
2024-06-20 07:40 am- 17.5 21.4----29.78-- 48.0----
2024-06-20 07:30 am- 17.5 21.4----29.78-- 48.0----
2024-06-20 07:20 am- 17.5 21.4 4.6 85.1ESE29.78-- 48.0----
2024-06-20 07:10 am- 15.5 19.4 4.6-5.1ESE29.78-- 48.0----
2024-06-20 07:00 am- 15.5 19.4----29.78-0.03- 48.0----
2024-06-20 06:50 am- 15.5 21.4 4.9 85.2ESE29.79-- 48.0----
2024-06-20 06:40 am- 15.5 17.5----29.79-- 48.0----
2024-06-20 06:30 am- 15.5 19.4----29.79-- 48.0----
2024-06-20 06:20 am- 15.5 19.4 4.9 85.4ESE29.79-- 48.2----
2024-06-20 06:10 am- 15.5 21.4 4.9-5.4ESE29.79-- 48.2----
2024-06-20 06:00 am- 15.5 17.5----29.79-0.04- 48.2----
2024-06-20 05:50 am- 13.6 17.5 4.9 85.4ESE29.79-- 48.4----
2024-06-20 05:40 am- 15.5 17.5 4.9-5.4ESE29.79-- 48.4----
2024-06-20 05:30 am- 15.5 19.4----29.79-- 48.4----
2024-06-20 05:20 am- 15.5 19.4 4.6 85.5ESE29.79-- 48.2----
2024-06-20 05:10 am- 15.5 19.4 4.6-5.5ESE29.80-- 48.2----
2024-06-20 05:00 am- 15.5 17.5----29.80-0.03- 48.2----
2024-06-20 04:50 am- 15.5 19.4 4.6 85.7ESE29.80-- 48.2----

Detailed Wave Summary
for 46075 as of (4:40 am AKDT)
1240 GMT on 06/21/2024:

These wave data are displayed in rounded times.

     

Click on the graph icon in the table below to see a time series plot of the last five days of that observation.

5-day plot - Significant Wave Height Significant Wave Height (WVHT): 5.2 ft
5-day plot - Swell Height Swell Height (SwH): 4.3 ft
5-day plot - Swell Period Swell Period (SwP): 7.7 sec
5-day plot - Swell Direction Swell Direction (SwD):ESE
5-day plot - Wind Wave Height Wind Wave Height (WWH): 2.6 ft
5-day plot - Wind Wave Period Wind Wave Period (WWP): 3.7 sec
5-day plot - Wind Wave Direction Wind Wave Direction (WWD):WNW
5-day plot - Wave Steepness Wave Steepness (STEEPNESS): AVERAGE
5-day plot - Average Wave Period Average Wave Period (APD): 5.7 sec
Previous observations
TIME
(AKDT)
5-day plot - Wave Height
WVHT
ft
5-day plot - Swell Height
SwH
ft
5-day plot - Swell Period
SwP
sec
5-day plot - Swell Direction
SwD
 
5-day plot - Wind Wave Height
WWH
ft
5-day plot - Wind Wave Period
WWP
sec
5-day plot - Wind Wave Direction
WWD
 
5-day plot - Wave Steepness
STEEPNESS
 
5-day plot - Average Wave Period
APD
sec
2024-06-21 04:10 am 4.6 3.9 8.3ESE 2.6 3.2 NW AVERAGE 5.7
2024-06-21 03:40 am 5.2 4.3 8.3 E 2.6 5.9 E AVERAGE 5.8
2024-06-21 03:10 am 5.2 4.6 8.3 E 2.6 5.3 E AVERAGE 6.2
2024-06-21 02:40 am 4.9 3.9 8.3 E 3.0 6.2 E AVERAGE 6.0
2024-06-21 02:10 am 4.9 4.9 8.3 E 1.6 4.0 ENE AVERAGE 6.2
2024-06-21 01:40 am 5.2 4.9 7.7 E 1.6 4.2 ENE AVERAGE 6.1
2024-06-21 01:10 am 5.9 5.9 7.7ESE 1.6 4.0 NE STEEP 6.2
2024-06-21 12:40 am 5.2 4.9 7.7 E 1.6 3.3 NE AVERAGE 5.9
2024-06-21 12:10 am 5.6 4.9 7.7 E 2.3 4.5 ENE AVERAGE 5.9
2024-06-20 11:40 pm 5.6 5.2 7.1 E 2.3 4.5 ENE STEEP 6.0
2024-06-20 11:10 pm 4.9 4.3 7.1 E 2.6 4.8 ENE STEEP 5.7
2024-06-20 10:40 pm 5.2 4.9 7.7 E 2.3 4.5 ENE AVERAGE 5.8
2024-06-20 10:10 pm 5.2 4.9 7.7ESE 1.6 3.3 NE AVERAGE 5.7
2024-06-20 09:40 pm 4.9 4.6 8.3 E 1.6 4.0 ENE AVERAGE 5.6
2024-06-20 09:10 pm 5.2 4.9 7.7 E 2.0 4.3 E AVERAGE 5.6
2024-06-20 08:40 pm 4.9 4.6 7.7 E 2.3 4.0 NE AVERAGE 5.5
2024-06-20 08:10 pm 5.6 4.6 7.7 E 3.0 4.8 ENE AVERAGE 5.6
2024-06-20 07:40 pm 5.2 4.6 7.7ESE 2.6 4.8 ENE AVERAGE 5.5
2024-06-20 07:10 pm 5.6 4.6 7.1 E 3.3 4.5 ENE STEEP 5.4
2024-06-20 06:40 pm 5.6 3.6 7.1 E 4.3 6.2 EVERY_STEEP 5.3
2024-06-20 06:10 pm 5.6 3.6 6.7ESE 4.3 5.3 E STEEP 5.0
2024-06-20 05:40 pm 5.6 3.3 7.7ESE 4.6 6.7 E STEEP 5.3
2024-06-20 05:10 pm 5.6 2.6 13.8 SE 4.9 7.1 E STEEP 5.0
2024-06-20 04:40 pm 5.6 2.3 8.3 E 5.2 5.9 EVERY_STEEP 5.1
2024-06-20 04:10 pm 5.6 2.3 9.1ESE 4.9 5.9 EVERY_STEEP 5.0
2024-06-20 03:40 pm 5.9 2.6 8.3ESE 4.9 5.0 ENEVERY_STEEP 5.1
2024-06-20 03:10 pm 5.6 2.3 8.3 E 5.2 5.6 ENEVERY_STEEP 4.9
2024-06-20 02:40 pm 5.6 3.0 8.3 E 4.6 5.9 EVERY_STEEP 4.8
2024-06-20 02:10 pm 5.6 3.0 8.3 E 4.9 5.6 E AVERAGE 4.9
2024-06-20 01:40 pm 5.6 2.3 12.9 SE 5.2 5.9 EVERY_STEEP 4.9
2024-06-20 01:10 pm 5.6 2.6 8.3ESE 4.9 5.0 ENEVERY_STEEP 4.9
2024-06-20 12:40 pm 5.6 2.6 8.3 E 4.6 5.0 EVERY_STEEP 5.0
2024-06-20 12:10 pm 5.6 2.6 8.3 E 4.9 5.0 EVERY_STEEP 4.9
2024-06-20 11:40 am 5.2 3.0 8.3ESE 4.3 5.0 ENEVERY_STEEP 4.9
2024-06-20 11:10 am 5.6 3.0 9.1ESE 4.6 4.8 ENEVERY_STEEP 5.0
2024-06-20 10:40 am 5.6 3.0 9.1 E 4.6 4.8 ENEVERY_STEEP 5.0
2024-06-20 10:10 am 5.2 3.3 8.3ESE 3.9 4.5 ENE AVERAGE 5.0
2024-06-20 09:40 am 5.2 3.3 8.3 E 3.9 4.2 ENE AVERAGE 5.0
2024-06-20 09:10 am 5.2 3.9 7.7ESE 3.6 4.8 ENE AVERAGE 5.2
2024-06-20 08:40 am 5.2 3.6 8.3 E 3.6 4.3 ENE AVERAGE 5.1
2024-06-20 08:10 am 4.9 3.3 8.3 E 3.6 4.5 E AVERAGE 5.2
2024-06-20 07:40 am 4.9 3.6 8.3 E 3.3 4.0 ENE AVERAGE 5.2
2024-06-20 07:10 am 4.6 3.6 8.3ESE 3.0 4.0 ENE AVERAGE 5.1
2024-06-20 06:40 am 4.9 3.6 8.3ESE 3.0 3.8 ENE AVERAGE 5.2
2024-06-20 06:10 am 4.9 3.9 8.3ESE 3.0 3.8 ENE AVERAGE 5.4
2024-06-20 05:40 am 4.9 3.9 8.3ESE 3.0 3.4 E AVERAGE 5.4
2024-06-20 05:10 am 4.6 3.9 8.3ESE 2.3 5.6 E AVERAGE 5.5

Plot of wave energy versus frequency (and period)